#timestamp,LO_Frequency,Hit,StdDev 
1548666015.9,286046999.6,N
1548666035.7,286046999.6,N
1548666055.6,286046998.4,N
1548666075.4,286046998.8,N
1548666095.2,286046998.8,N
1548666115.1,286046998.5,N
1548666116.0,286046998.5,N
1548666135.8,286046996.5,Y
1548666155.6,286046997.0,P
1548666175.5,286047000.3,N
1548666195.3,286047002.5,N
1548666215.2,286047000.4,N
1548666235.9,286046999.9,N
1548666255.7,286046998.4,N
1548666275.6,286046998.5,N
1548666295.4,286046998.5,N
1548666315.2,286046997.0,N
1548666335.1,286046999.5,N
1548666336.0,286046999.5,N
1548666355.8,286046999.3,N
1548666375.7,286047001.2,N
1548666395.5,286047000.3,N
1548666415.3,286046999.8,N
1548666435.2,286047001.7,N
1548666455.0,286047004.0,N
1548666455.9,286047004.0,N
1548666475.8,286047001.9,N
1548666495.6,286047002.3,N
1548666515.4,286047000.7,N
1548666535.3,286047002.8,N
1548666555.1,286047000.7,N
1548666575.8,286046998.4,N
1548666595.7,286046998.3,N
1548666615.5,286047000.9,N
1548666635.4,286046998.9,N
1548666655.2,286046997.0,N
1548666675.0,286046996.6,N
1548666675.9,286046996.6,N
1548666695.8,286046998.3,N
1548666715.6,286046999.4,N
1548666735.4,286046999.5,N
1548666755.3,286046997.6,N
1548666775.1,286046995.1,N
1548666795.9,286046995.4,N
1548666815.7,286046997.1,N
1548666835.5,286046998.3,N
1548666855.4,286047002.3,N
1548666875.2,286047004.4,N
1548666895.1,286047004.0,N
1548666896.0,286047004.0,N
1548666915.8,286047003.4,N
1548666935.6,286047003.6,N
1548666955.5,286047003.8,N
1548666975.3,286047002.3,N
1548666995.1,286047000.1,N
1548667015.9,286047001.0,N
1548667035.7,286046999.8,N
1548667055.6,286047002.0,N
1548667075.4,286047005.7,N
1548667095.2,286047005.1,N
1548667115.1,286047002.9,N
1548667116.0,286047002.9,N
1548667135.8,286047003.1,N
1548667155.6,286047003.2,N
1548667175.5,286047004.3,N
1548667195.3,286047004.0,N
1548667215.6,286047002.1,N
1548667235.4,286046998.4,N
1548667255.3,286046998.6,N
1548667275.1,286046998.5,N
1548667295.9,286047000.4,N
1548667315.7,286046999.7,N
1548667335.5,286047003.9,N
1548667355.4,286047003.8,N
1548667375.2,286047003.3,N
1548667395.0,286047003.0,N
1548667396.0,286047003.0,N
1548667415.8,286047004.8,N
1548667435.6,286047005.4,N
1548667455.5,286047003.6,N
1548667475.3,286046999.7,N
1548667495.1,286046998.3,N
1548667515.9,286046996.9,N
1548667535.7,286046997.5,N
1548667555.5,286046995.5,N
1548667575.4,286046997.9,N
1548667595.2,286046995.1,N
1548667615.1,286046993.7,N
1548667616.0,286046993.7,N
1548667635.8,286046994.1,N
1548667655.6,286046994.3,N
1548667675.5,286046993.9,N
1548667695.3,286046995.9,N
1548667715.2,286046993.8,N
1548667735.2,286046996.1,N
1548667755.1,286046993.4,N
1548667756.0,286046993.4,N
1548667775.8,286046993.4,N
1548667795.6,286046993.8,N
1548667815.5,286046996.1,N
1548667835.3,286046996.4,N
1548667855.1,286046993.8,N
1548667875.9,286046996.3,N
1548667895.7,286046995.6,N
1548667915.6,286046994.9,N
1548667935.4,286046995.0,N
1548667955.2,286046995.8,N
1548667975.1,286046994.9,N
1548667976.0,286046994.9,N
1548667995.8,286046997.4,N
1548668015.7,286046999.6,N
1548668035.5,286046997.1,N
1548668055.3,286046995.3,Y
1548668075.2,286046998.9,P
1548668095.0,286046996.6,N
1548668095.9,286046996.6,N
1548668115.7,286046996.7,N
1548668135.4,286046997.5,N
1548668155.2,286046996.9,N
1548668175.1,286046997.3,N
1548668176.0,286046997.3,N
1548668195.8,286046999.2,N
1548668215.7,286046996.5,Y
1548668235.5,286047002.6,P
1548668255.3,286047002.5,N
1548668275.2,286046999.7,N
1548668295.0,286047000.5,N
1548668295.9,286047000.5,N
1548668315.7,286046998.3,N
1548668335.6,286046996.7,N
1548668355.4,286046997.3,N
1548668375.3,286046997.8,N
1548668395.1,286046998.0,N
1548668415.8,286046997.8,N
1548668435.7,286046997.4,N
1548668455.5,286046997.4,N
1548668475.4,286046996.8,N
1548668495.2,286046997.9,N
1548668515.0,286046997.3,N
1548668515.9,286046997.3,N
1548668535.8,286046996.8,N
1548668555.6,286046997.1,N
1548668575.4,286046995.0,N
1548668595.3,286046999.1,N
1548668615.1,286046996.5,N
1548668635.9,286046998.4,N
1548668655.7,286047000.6,N
1548668675.5,286046998.7,N
1548668695.4,286046997.5,N
1548668715.2,286046999.4,N
1548668735.0,286047000.9,N
1548668735.9,286047000.9,N
1548668755.8,286047001.0,N
1548668775.6,286046998.8,N
1548668795.5,286047001.0,N
1548668815.3,286047001.2,N
1548668835.1,286046999.8,N
1548668855.9,286047002.7,N
1548668875.7,286047000.6,N
1548668895.5,286047002.4,N
1548668915.4,286047000.0,N
1548668935.2,286047000.7,N
1548668955.1,286047000.3,N
1548668956.0,286047000.3,N
1548668975.8,286047000.5,N
1548668995.6,286047000.3,N
1548669015.5,286047002.5,N
1548669035.3,286047003.9,N
1548669055.1,286047001.7,N
1548669075.9,286047002.1,N
1548669095.7,286047001.8,N
1548669115.6,286046999.9,N
1548669135.4,286047000.5,N
1548669155.2,286047001.0,N
1548669175.1,286047000.9,N
1548669176.0,286047000.9,N
1548669195.8,286047000.5,N
1548669215.6,286047000.1,N
1548669235.5,286047000.2,N
1548669255.3,286046999.7,N
1548669275.2,286046999.9,N
1548669295.9,286047000.6,N
1548669315.7,286047000.3,N
1548669335.6,286046999.9,N
1548669355.4,286047002.0,N
1548669375.3,286047004.4,Y
1548669395.1,286047002.7,P
1548669396.0,286047002.7,N
1548669415.8,286047001.6,N
1548669435.7,286047004.4,Y
1548669455.5,286047001.0,P
1548669475.4,286047011.9,P
1548669495.2,286046998.3,N
1548669515.0,286047000.0,N
1548669515.9,286047000.0,N
1548669535.8,286046998.6,N
1548669555.6,286047001.0,N
1548669575.4,286046999.3,N
1548669595.3,286046996.5,N
